Meteo Giornale » Osservazioni meteo Italia » Verona-Villafranca

ore: 16:50 - Osservazioni Meteo Verona-Villafranca
Lat. 45° 23' N Lon. 10° 52' E Alt. 67 metri s.l.m.

poco_nuvoloso Europe/Rome

21 °C

Poco Nuvoloso

Temp. 24 Ore

12 °C

22 °C

Est/Nord-Est

14.8 Km/h

Dew point 10 °C

Umidità 49 %

Visibilità  10 Km

Il sole sorge alle ore 07:06

Il sole tramonta alle ore 19:09

Data e Ora Cielo e Fenomeni T °C DP °C Um. % Pres. hPa Vis. km Vento km/h
Oggi h: 16:50 poco_nuvoloso Poco Nuvoloso 21 10 49 1019 10 E/NE 14.8
Oggi h: 16:20 nuvoloso Nuvoloso 21 11 52 1019 10 E 9.3
Oggi h: 15:50 nuvoloso Nuvoloso 20 11 56 1019 10 E 13
Oggi h: 15:20 nuvoloso Nuvoloso 22 10 46 1019 10 N 9.3
Oggi h: 14:50 nuvoloso Nuvoloso 21 10 49 1019 10 E 9.3
Oggi h: 14:20 nuvoloso Nuvoloso 22 11 49 1019 10 E/SE 11.1
Oggi h: 13:50 nuvoloso Nuvoloso 21 11 52 1019 10 E/SE 11.1
Oggi h: 13:20 poco_nuvoloso Poco Nuvoloso 21 11 52 1019 10 E 9.3
Oggi h: 12:50 poco_nuvoloso Poco Nuvoloso 21 10 49 1020 10 N 5.5
Oggi h: 12:20 poco_nuvoloso Poco Nuvoloso 20 11 56 1020 10 N 7.4
Oggi h: 11:50 poco_nuvoloso Poco Nuvoloso 19 11 59 1020 10 N 5.5
Oggi h: 11:20 poco_nuvoloso Poco Nuvoloso 19 12 63 1020 10 SO 9.3
Oggi h: 10:50 nuvoloso Nuvoloso 18 11 63 1020 10 O/SO 9.3
Oggi h: 10:20 molto_nuvoloso Molto Nuvoloso 18 12 67 1020 10 N 5.5
Oggi h: 09:50 nuvoloso Nuvoloso 17 13 77 1019 10 N 5.5
Oggi h: 09:20 nuvoloso Nuvoloso 15 13 87 1019 10 N 3.7
Oggi h: 08:50 poco_nuvoloso Poco Nuvoloso 14 12 87 1019 10 N 1.8
Oggi h: 08:20 poco_nuvoloso Poco Nuvoloso 13 12 93 1019 10 N 3.7
Oggi h: 07:50 poco_nuvoloso Poco Nuvoloso 12 11 93 1019 10 N 5.5
Oggi h: 07:20 poco_nuvoloso Poco Nuvoloso 12 11 93 1019 9 N 3.7
Oggi h: 06:50 poco_nuvoloso Poco Nuvoloso 13 12 93 1019 10 N 5.5
Oggi h: 06:20 nuvoloso Nuvoloso 13 12 93 1019 10 N 3.7
Oggi h: 05:50 nuvoloso Nuvoloso 13 12 93 1019 10 N 3.7
Oggi h: 05:20 nuvoloso Nuvoloso 12 11 93 1019 10 N 3.7
Oggi h: 04:50 nuvoloso Nuvoloso 12 11 93 1019 10 N 3.7
Oggi h: 04:20 nuvoloso Nuvoloso 13 12 93 1019 10 N 5.5
Oggi h: 03:50 nuvoloso Nuvoloso 12 11 93 1019 10 N 5.5
Oggi h: 03:20 nuvoloso Nuvoloso 12 11 93 1019 10 O/SO 7.4
Oggi h: 02:50 nuvoloso Nuvoloso 12 11 93 1019 10 O/SO 7.4
Oggi h: 02:20 nuvoloso Nuvoloso 13 11 87 1019 10 N 5.5
Oggi h: 01:50 nuvoloso Nuvoloso 14 12 87 1020 10 SO 7.4
Oggi h: 01:20 nuvoloso Nuvoloso 14 12 87 1020 10 SO 7.4
Oggi h: 00:50 nuvoloso Nuvoloso 13 12 93 1020 10 O 7.4
Oggi h: 00:20 nuvoloso Nuvoloso 14 12 87 1020 10 O/SO 7.4
Ieri h: 23:50 nuvoloso Nuvoloso 13 12 93 1020 10 N 1.8
Ieri h: 23:20 poco_nuvoloso Poco Nuvoloso 14 11 82 1020 10 N 5.5
Ieri h: 22:50 poco_nuvoloso Poco Nuvoloso 14 12 87 1020 10 S/SE 9.3
Ieri h: 22:20 sereno Sereno 13 11 87 1020 10 N 3.7
Ieri h: 21:50 sereno Sereno 14 11 82 1020 10 SE 7.4
Ieri h: 21:20 sereno Sereno 14 12 87 1020 10 N 5.5
Ieri h: 20:50 sereno Sereno 15 12 82 1019 10 E 7.4
Ieri h: 20:20 poco_nuvoloso Poco Nuvoloso 15 12 82 1019 10 E 9.3
Ieri h: 19:50 poco_nuvoloso Poco Nuvoloso 16 13 82 1019 10 E 7.4
Ieri h: 19:20 nuvoloso Nuvoloso 16 13 82 1019 10 E 9.3
Ieri h: 18:50 nuvoloso Nuvoloso 18 14 77 1019 10 E/NE 13
Ieri h: 17:50 coperto_pioggia Pioggia Debole 18 13 72 1019 10 E 13